CZ-3B R/B

基本信息
目录编号:
63663
目录名称:
CZ-3B R/B
国际标识:
2025-084B
轨道中心:
EARTH
物体状态:
在轨
发射日期:
2025-04-27 UTC
国别:
中国 (CN)
轨道信息
数据来源: 国际轨道数据
星历时间: 2026-09-05T07:45:19+0800
半长轴: 21675.767km
偏心率: 0.6961524
轨道倾角: 27.097°
近地点辐角: 171.899°
升交点赤经: 239.160°
平近点角: 212.072°
近地点: 207.992km
远地点: 30387.268km
周期: 529.324分钟
每日圈数: 2.720452
详细信息
发射场:
XSC
轨道高度:
LEO
数据来源:
AOE Integration Group
参考系:
TEME
时间系统:
UTC
历元类型:
SGP4
2D轨道图
3D轨道图
轨道高度分析图
轨道倾角分析图
轨道综合分析图
查看轨道综合分析图